Weather History for KCOU - November, 2014

Change the Weather History Date:

Sunday, November 2, 2014

  Actual Average Record
Temperature  
Mean Temperature 48 °F 51 °F  
Max Temperature 59 °F 61 °F 80 °F (1964)
Min Temperature 37 °F 40 °F 15 °F (1951)
Degree Days  
Heating Degree Days 17 15  
Month to date heating degree days 45 29  
Since 1 July heating degree days 339 394  
Cooling Degree Days 0 0  
Month to date cooling degree days 0 0  
Year to date cooling degree days 1266 1247  
Moisture  
Dew Point 26 °F    
Average Humidity 45    
Maximum Humidity 64    
Minimum Humidity 25    
Precipitation  
Precipitation 0.01 in 0.10 in 1.51 in (1946)
Month to date precipitation 0.01 0.20  
Year to date precipitation 40.63 37.13  
Snow  
Snow 0.00 in 0.00 in T in (2002)
Month to date snowfall 0.0 0.0  
Since 1 July snowfall 0.0 0.0  
Since 1 September snowfall 0.0 0.0  
Snow Depth 0.00 in    
Sea Level Pressure  
Sea Level Pressure 30.26 in    
Wind  
Wind Speed 14 mph (SSE)    
Max Wind Speed 23 mph    
Max Gust Speed 29 mph    
Visibility 10 miles    
Events      
T = Trace of Precipitation, MM = Missing Value Source: NWS Daily Summary

Daily Weather History Graph

Daily Weather History Graph

Search for Another Location

Airport or City:

Trip Planner

Search our weather history database for the weather conditions in past years. The results will help you decide how hot, cold, wet, or windy it might be!

Date:

Astronomy

Nov. 02, 2014 Rise Set
Actual Time 6:37 AM CST 5:07 PM CST
Civil Twilight 6:09 AM CST 5:34 PM CST
Nautical Twilight 5:37 AM CST 6:06 PM CST
Astronomical Twilight 5:06 AM CST 6:37 PM CST
Moon 2:37 PM CST (11/2) 1:43 AM CST (11/2)
Length of Visible Light 11h 25m
Length of Day
10h 30m
Waxing Gibbous, 79% of the Moon is Illuminated
Nov 2
Waxing Gibbous
Nov 6
Full
Nov 14
Last Quarter
Nov 22
New
Nov 29
First Quarter

Hourly Weather History & Observations

Time (CST) Temp. Windchill Dew Point Humidity Pressure Visibility Wind Dir Wind Speed Gust Speed Precip Events Conditions
12:54 AM 37.0 °F 31.0 °F 25.0 °F 62% 30.37 in 10.0 mi SE 8.1 mph - N/A   Overcast
1:54 AM 39.0 °F 32.3 °F 25.0 °F 57% 30.36 in 10.0 mi SE 10.4 mph - N/A   Overcast
1:54 AM 37.9 °F 30.9 °F 25.0 °F 60% 30.35 in 10.0 mi SSE 10.4 mph - N/A   Overcast
2:54 AM 37.9 °F 31.5 °F 26.1 °F 62% 30.35 in 10.0 mi SSE 9.2 mph - N/A   Overcast
3:54 AM 39.9 °F 32.9 °F 25.0 °F 55% 30.34 in 10.0 mi SE 11.5 mph - N/A   Overcast
4:54 AM 39.9 °F 32.9 °F 25.0 °F 55% 30.35 in 10.0 mi SSE 11.5 mph - N/A   Overcast
5:54 AM 39.9 °F 32.9 °F 25.0 °F 55% 30.35 in 10.0 mi SSE 11.5 mph - N/A   Overcast
6:54 AM 39.9 °F 32.1 °F 26.1 °F 58% 30.35 in 10.0 mi SE 13.8 mph - N/A   Overcast
7:54 AM 41.0 °F 33.9 °F 27.0 °F 57% 30.35 in 10.0 mi SE 12.7 mph - N/A   Overcast
8:54 AM 41.0 °F 33.9 °F 28.9 °F 62% 30.36 in 10.0 mi SSE 12.7 mph - 0.01 in   Overcast
9:54 AM 44.1 °F 37.7 °F 28.0 °F 53% 30.35 in 10.0 mi SSE 12.7 mph - N/A   Overcast
10:54 AM 48.0 °F - 28.0 °F 46% 30.31 in 10.0 mi SSE 18.4 mph - N/A   Overcast
11:54 AM 52.0 °F - 27.0 °F 38% 30.27 in 10.0 mi South 16.1 mph 24.2 mph N/A   Partly Cloudy
12:54 PM 55.0 °F - 28.0 °F 35% 30.23 in 10.0 mi SSE 17.3 mph 24.2 mph N/A   Clear
1:54 PM 57.0 °F - 28.9 °F 34% 30.19 in 10.0 mi SSE 20.7 mph 25.3 mph N/A   Clear
2:54 PM 57.9 °F - 27.0 °F 31% 30.18 in 10.0 mi SSE 18.4 mph - N/A   Clear
3:54 PM 57.9 °F - 23.0 °F 26% 30.16 in 10.0 mi South 16.1 mph - N/A   Clear
4:54 PM 55.4 °F - 23.0 °F 29% 30.14 in 10.0 mi SSE 16.1 mph - N/A   Clear
5:54 PM 53.1 °F - 23.0 °F 31% 30.15 in 10.0 mi SSE 17.3 mph 24.2 mph N/A   Clear
6:54 PM 51.1 °F - 23.0 °F 33% 30.15 in 10.0 mi South 18.4 mph - N/A   Clear
7:54 PM 50.0 °F - 25.0 °F 38% 30.14 in 10.0 mi SSE 15.0 mph - N/A   Clear
8:54 PM 48.9 °F - 26.1 °F 41% 30.14 in 10.0 mi SSE 16.1 mph - N/A   Clear
9:54 PM 48.0 °F - 27.0 °F 44% 30.14 in 10.0 mi SSE 13.8 mph - N/A   Clear
10:54 PM 46.9 °F - 28.0 °F 48% 30.14 in 10.0 mi SSE 11.5 mph - N/A   Clear